KC5DAQ-22 Weather Reports


time (UTC)temp
C
wind
direction
speed
KPH
gust
KPH
rain 1hr
cm
rain 24hr
cm
rain mn
cm
humidity
%
barometer
mb
20260502194835 24 314 12.9 27.4 0.00 1.65 0.00 46 1017.3
20260502194734 24 338 14.5 27.4 0.00 1.68 0.00 46 1017.3
20260502194636 24 357 16.1 27.4 0.00 1.68 0.00 45 1017.3
20260502194533 24 11 14.5 27.4 0.00 1.68 0.00 47 1017.3
20260502194433 24 0 12.9 27.4 0.00 1.68 0.00 46 1017.4
20260502194334 23 0 12.9 27.4 0.00 1.70 0.00 46 1017.3
20260502194233 23 0 14.5 27.4 0.00 1.73 0.00 46 1017.4
20260502194134 23 0 12.9 27.4 0.00 1.73 0.00 46 1017.4
20260502194033 23 24 11.3 30.6 0.00 1.73 0.00 46 1017.4
20260502193934 24 54 11.3 30.6 0.00 1.75 0.00 47 1017.4
20260502193833 24 28 8.0 30.6 0.00 1.75 0.00 46 1017.4
20260502193733 24 35 11.3 30.6 0.00 1.75 0.00 46 1017.5
20260502193634 24 30 12.9 30.6 0.00 1.75 0.00 46 1017.6
20260502193534 24 37 9.7 30.6 0.00 1.75 0.00 48 1017.5
20260502193434 24 48 9.7 30.6 0.00 1.75 0.00 48 1017.6
20260502193334 24 31 12.9 30.6 0.00 1.75 0.00 47 1017.6
20260502193235 24 333 16.1 30.6 0.00 1.75 0.00 48 1017.6
20260502193133 24 0 14.5 30.6 0.00 1.75 0.00 48 1017.6
20260502193033 23 0 12.9 25.7 0.00 1.75 0.00 47 1017.6
20260502192934 24 345 14.5 22.5 0.00 1.78 0.00 47 1017.5
20260502192834 24 330 14.5 22.5 0.00 1.78 0.00 48 1017.5
20260502192733 24 340 11.3 22.5 0.00 1.78 0.00 49 1017.6
20260502192633 23 355 9.7 20.9 0.00 1.78 0.00 47 1017.6
20260502192533 23 63 12.9 20.9 0.00 1.78 0.00 47 1017.5
20260502192433 23 37 12.9 24.1 0.00 1.78 0.00 47 1017.6
20260502192333 23 49 9.7 25.7 0.00 1.78 0.00 48 1017.7
20260502192234 23 0 6.4 29.0 0.00 1.78 0.00 48 1017.6
20260502192132 23 45 8.0 29.0 0.00 1.78 0.00 49 1017.7
20260502192033 23 47 6.4 29.0 0.00 1.78 0.00 49 1017.7
20260502191934 23 42 4.8 29.0 0.00 1.78 0.00 48 1017.8
20260502191833 23 336 6.4 29.0 0.00 1.78 0.00 48 1017.7
20260502191733 23 327 9.7 29.0 0.00 1.78 0.00 49 1017.6
20260502191633 23 13 16.1 29.0 0.00 1.78 0.00 49 1017.7
20260502191534 23 0 19.3 29.0 0.00 1.78 0.00 48 1017.9
20260502191433 23 42 20.9 29.0 0.00 1.78 0.00 48 1017.7
20260502191333 23 1 19.3 29.0 0.00 1.78 0.00 48 1017.7
20260502191235 23 28 16.1 25.7 0.00 1.78 0.00 49 1017.7
20260502191133 23 45 14.5 25.7 0.00 1.78 0.00 48 1017.7
20260502191033 23 25 12.9 25.7 0.00 1.78 0.00 48 1017.6
20260502190933 23 30 9.7 19.3 0.00 1.78 0.00 48 1017.7
20260502190835 23 0 11.3 19.3 0.00 1.78 0.00 49 1017.7
20260502190732 23 0 12.9 20.9 0.00 1.78 0.00 48 1017.8
20260502190632 23 24 12.9 20.9 0.00 1.78 0.00 47 1017.7
20260502190534 23 68 11.3 22.5 0.00 1.80 0.00 47 1017.8
20260502190432 23 27 9.7 24.1 0.00 1.80 0.00 47 1017.8
20260502190332 23 23 8.0 24.1 0.00 1.80 0.00 48 1017.8
20260502190234 23 14 6.4 24.1 0.00 1.80 0.00 49 1017.8
20260502190134 23 334 9.7 24.1 0.00 1.83 0.00 49 1017.8
20260502190034 23 337 12.9 24.1 0.00 1.85 0.00 49 1017.8
20260502185932 23 8 12.9 24.1 0.00 1.85 0.00 47 1017.7
20260502185831 23 353 12.9 24.1 0.00 1.88 0.00 48 1017.7
20260502185732 23 343 16.1 24.1 0.00 1.88 0.00 47 1017.8
20260502185631 24 0 16.1 24.1 0.00 1.88 0.00 48 1017.7
20260502185530 24 56 12.9 24.1 0.00 1.91 0.00 47 1017.8
20260502185428 24 18 12.9 19.3 0.00 1.91 0.00 47 1017.8
20260502185327 24 0 12.9 19.3 0.00 1.91 0.00 47 1017.9
20260502185225 24 14 8.0 20.9 0.00 1.93 0.00 48 1017.9
20260502185123 24 28 4.8 20.9 0.00 1.93 0.00 48 1017.9
20260502185022 24 0 6.4 20.9 0.00 1.96 0.00 49 1017.9
20260502184921 23 42 8.0 20.9 0.00 1.96 0.00 48 1017.9
20260502184819 23 16 8.0 20.9 0.00 1.98 0.00 48 1018.0
20260502184718 23 13 8.0 25.7 0.00 2.01 0.00 47 1018.0
20260502184617 23 0 9.7 25.7 0.00 2.03 0.00 47 1018.0
20260502184516 24 1 12.9 25.7 0.00 2.06 0.00 47 1018.0
20260502184413 24 39 9.7 25.7 0.00 2.06 0.00 50 1018.0
20260502184310 23 24 6.4 25.7 0.00 2.08 0.00 49 1018.0
20260502184212 23 0 4.8 25.7 0.00 2.08 0.00 49 1017.9
20260502184110 23 354 8.0 25.7 0.00 2.11 0.00 49 1018.0
20260502184006 23 31 9.7 25.7 0.00 2.11 0.00 48 1018.0
20260502183906 23 23 14.5 25.7 0.00 2.11 0.00 47 1018.0
20260502183804 23 49 17.7 25.7 0.00 2.13 0.00 49 1018.0
20260502183703 23 25 14.5 22.5 0.00 2.13 0.00 50 1018.1
20260502183602 23 48 11.3 22.5 0.00 2.13 0.00 49 1018.1
20260502183503 23 48 9.7 19.3 0.00 2.16 0.00 49 1018.0
20260502183354 23 21 9.7 24.1 0.00 2.16 0.00 49 1018.0
20260502183251 23 327 8.0 24.1 0.00 2.16 0.00 49 1018.0
20260502183149 23 14 9.7 24.1 0.00 2.18 0.00 49 1018.1
20260502183048 23 0 11.3 24.1 0.00 2.18 0.00 48 1018.1
20260502182946 23 7 11.3 24.1 0.00 2.21 0.00 49 1018.1
20260502182845 23 0 11.3 24.1 0.00 2.24 0.00 48 1018.1
20260502182745 23 13 11.3 24.1 0.00 2.26 0.00 48 1018.1
20260502182643 23 7 12.9 24.1 0.00 2.29 0.00 47 1018.1
20260502182540 23 37 14.5 24.1 0.00 2.31 0.00 47 1018.2
20260502182437 23 31 9.7 24.1 0.00 2.36 0.00 49 1018.2
20260502182334 23 23 8.0 20.9 0.00 2.41 0.00 49 1018.2
20260502182233 23 30 8.0 20.9 0.00 2.44 0.00 48 1018.2
20260502182132 23 30 11.3 20.9 0.00 2.49 0.00 47 1018.3
20260502182033 23 347 12.9 20.9 0.00 2.51 0.00 47 1018.2
20260502181932 23 348 9.7 20.9 0.00 2.54 0.00 47 1018.2
20260502181832 23 357 8.0 20.9 0.00 2.57 0.00 48 1018.3
20260502181732 23 42 9.7 20.9 0.00 2.57 0.00 49 1018.3
20260502181632 23 23 9.7 22.5 0.00 2.59 0.00 48 1018.4
20260502181532 23 343 11.3 24.1 0.00 2.62 0.00 49 1018.3
20260502181431 23 344 12.9 25.7 0.00 2.62 0.00 49 1018.3
20260502181330 23 1 11.3 25.7 0.00 2.64 0.00 48 1018.3
20260502181233 23 41 9.7 25.7 0.00 2.64 0.00 48 1018.4
20260502181132 23 17 6.4 25.7 0.00 2.64 0.00 49 1018.4
20260502181031 23 336 8.0 25.7 0.00 2.67 0.00 49 1018.3
20260502180932 22 30 11.3 25.7 0.00 2.69 0.00 49 1018.3
20260502180831 22 51 14.5 25.7 0.00 2.69 0.00 49 1018.4
20260502180731 22 45 17.7 25.7 0.00 2.72 0.00 48 1018.4
20260502180632 22 45 19.3 25.7 0.00 2.74 0.00 48 1018.4
20260502180531 22 0 17.7 37.0 0.00 2.79 0.00 47 1018.4
20260502180431 22 51 17.7 37.0 0.00 2.79 0.00 46 1018.5
20260502180331 22 41 19.3 37.0 0.00 2.79 0.00 46 1018.5
20260502180232 23 42 20.9 37.0 0.00 2.82 0.00 47 1018.6
20260502180131 23 41 17.7 37.0 0.00 2.84 0.00 47 1018.6
20260502170504 22 41 17.7 29.0 0.00 3.17 0.00 54 1018.8
20260502170402 22 55 17.7 29.0 0.00 3.17 0.00 53 1018.8
20260502170302 21 31 17.7 29.0 0.00 3.17 0.00 53 1018.8
20260502170203 21 38 17.7 29.0 0.00 3.17 0.00 54 1018.8
20260502170104 22 350 14.5 29.0 0.00 3.17 0.00 54 1018.7
20260502164302 21 20 12.9 24.1 0.00 3.17 0.00 59 1018.7
20260502164202 21 0 11.3 24.1 0.00 3.17 0.00 60 1018.8
20260502164103 21 47 9.7 24.1 0.00 3.17 0.00 59 1018.8
20260502164002 21 0 11.3 25.7 0.00 3.17 0.00 58 1018.8
20260502163902 21 0 9.7 25.7 0.00 3.17 0.00 59 1018.7
20260502163804 21 338 11.3 25.7 0.00 3.17 0.00 60 1018.9
20260502163703 21 6 14.5 25.7 0.00 3.17 0.00 60 1018.8
20260502163601 21 24 12.9 25.7 0.00 3.17 0.00 60 1018.9
20260502163502 21 16 11.3 25.7 0.00 3.17 0.00 60 1018.9
20260502163402 21 344 14.5 25.7 0.00 3.17 0.00 60 1018.8
20260502163303 21 47 12.9 30.6 0.00 3.17 0.00 62 1018.8
20260502163202 21 11 14.5 30.6 0.00 3.17 0.00 62 1018.8
20260502163104 21 32 14.5 30.6 0.00 3.17 0.00 62 1018.8
20260502163002 21 0 9.7 30.6 0.00 3.17 0.00 62 1018.8
20260502162902 21 42 9.7 30.6 0.00 3.17 0.00 63 1018.8
20260502162803 21 1 11.3 30.6 0.00 3.17 0.00 62 1018.9
20260502162702 21 0 12.9 30.6 0.00 3.17 0.00 63 1018.9
20260502162602 21 0 11.3 30.6 0.00 3.17 0.00 62 1018.8
20260502162503 21 21 16.1 30.6 0.00 3.17 0.00 62 1018.8
20260502162403 21 6 19.3 30.6 0.00 3.17 0.00 61 1018.8
20260502162304 21 39 14.5 24.1 0.00 3.17 0.00 62 1018.8
20260502162202 21 0 14.5 25.7 0.00 3.17 0.00 62 1018.9
20260502162104 21 0 14.5 25.7 0.00 3.17 0.00 63 1018.9
20260502162004 21 16 14.5 25.7 0.00 3.17 0.00 63 1018.8
20260502161902 20 336 11.3 25.7 0.00 3.17 0.00 62 1018.8
20260502161803 20 0 9.7 25.7 0.00 3.17 0.00 62 1018.8
20260502161703 20 314 12.9 25.7 0.00 3.17 0.00 62 1018.9
20260502161602 20 44 14.5 25.7 0.00 3.17 0.00 62 1018.9
20260502161502 20 0 16.1 25.7 0.00 3.17 0.00 62 1018.8
20260502161403 20 3 17.7 25.7 0.00 3.17 0.00 62 1018.8
20260502161302 20 13 17.7 25.7 0.00 3.17 0.00 62 1018.8
20260502161202 20 6 16.1 25.7 0.00 3.17 0.00 64 1018.8
20260502161102 20 27 16.1 25.7 0.00 3.17 0.00 64 1018.8
20260502161004 20 39 14.5 25.7 0.00 3.17 0.00 64 1018.7
20260502160902 20 25 9.7 24.1 0.00 3.17 0.00 64 1018.7
20260502160802 20 0 11.3 24.1 0.00 3.17 0.00 64 1018.6
20260502160704 20 355 12.9 24.1 0.00 3.17 0.00 65 1018.8
20260502160604 20 358 9.7 24.1 0.00 3.17 0.00 66 1018.7
20260502160504 20 17 12.9 24.1 0.00 3.17 0.00 66 1018.7
20260502160403 20 39 12.9 24.1 0.00 3.17 0.00 67 1018.6
20260502160302 20 52 9.7 24.1 0.00 3.17 0.00 67 1018.7
20260502160203 20 0 11.3 24.1 0.00 3.17 0.00 66 1018.6
20260502152341 18 13 16.1 27.4 0.00 3.17 0.00 72 1018.7
20260502152238 18 7 16.1 27.4 0.00 3.17 0.00 72 1018.7
20260502152137 18 32 14.5 27.4 0.00 3.17 0.00 72 1018.7
20260502152030 18 274 9.7 27.4 0.00 3.17 0.00 73 1018.7
20260502151931 18 258 9.7 27.4 0.00 3.17 0.00 72 1018.7
20260502151833 18 252 14.5 27.4 0.00 3.17 0.00 73 1018.6
20260502151732 18 0 16.1 27.4 0.00 3.17 0.00 72 1018.6
20260502151631 18 8 17.7 27.4 0.00 3.17 0.00 71 1018.6
20260502151532 18 23 16.1 27.4 0.00 3.17 0.00 71 1018.6
20260502151431 18 269 16.1 25.7 0.00 3.17 0.00 72 1018.6
20260502151332 18 45 17.7 25.7 0.00 3.17 0.00 73 1018.6
20260502151231 18 27 16.1 25.7 0.00 3.17 0.00 73 1018.6
20260502151132 18 42 14.5 25.7 0.00 3.17 0.00 73 1018.6
20260502151031 18 279 12.9 25.7 0.00 3.17 0.00 73 1018.5
20260502150931 18 283 12.9 25.7 0.00 3.17 0.00 73 1018.5
20260502150828 18 269 14.5 25.7 0.00 3.17 0.00 73 1018.6
20260502150728 18 274 14.5 25.7 0.00 3.17 0.00 73 1018.6
20260502150627 18 278 11.3 25.7 0.00 3.17 0.00 74 1018.7
20260502150528 18 11 12.9 25.7 0.00 3.17 0.00 74 1018.6
20260502150428 18 39 14.5 25.7 0.00 3.17 0.00 74 1018.6
20260502150327 18 24 12.9 25.7 0.00 3.17 0.00 74 1018.6
20260502150228 18 23 11.3 25.7 0.00 3.17 0.00 75 1018.7
20260502150127 18 34 11.3 24.1 0.00 3.17 0.00 75 1018.6
20260502140127 15 10 9.7 19.3 0.00 3.51 0.00 84 1018.2
20260502130725 13 0 9.7 17.7 0.00 3.63 0.00 94 1017.4
20260502130625 13 0 9.7 17.7 0.00 3.63 0.00 94 1017.5
20260502130525 13 299 9.7 16.1 0.00 3.63 0.00 94 1017.5
20260502130426 13 0 9.7 16.1 0.00 3.63 0.00 94 1017.4
20260502130326 12 0 9.7 16.1 0.00 3.63 0.00 94 1017.4
20260502130224 12 286 8.0 16.1 0.00 3.63 0.00 94 1017.4
20260502130126 12 314 6.4 16.1 0.00 3.63 0.00 94 1017.4
20260502123804 12 323 8.0 11.3 0.00 3.63 0.00 95 1017.1
20260502123701 12 321 8.0 11.3 0.00 3.63 0.00 95 1017.1
20260502123602 12 323 6.4 11.3 0.00 3.63 0.00 95 1017.1
20260502123503 12 320 6.4 9.7 0.00 3.63 0.00 95 1017.1
20260502123402 12 310 4.8 9.7 0.00 3.63 0.00 95 1017.0
20260502123303 11 327 4.8 6.4 0.00 3.63 0.00 95 1016.9
20260502123203 11 357 4.8 6.4 0.00 3.63 0.00 95 1017.0
20260502123103 11 357 4.8 6.4 0.00 3.63 0.00 95 1016.9
20260502123003 11 357 4.8 9.7 0.00 3.63 0.00 95 1016.9
20260502122904 11 357 4.8 9.7 0.00 3.63 0.00 95 1016.9
20260502122803 11 314 3.2 9.7 0.00 3.63 0.00 95 1017.0
20260502122703 11 330 3.2 9.7 0.00 3.63 0.00 95 1016.8
20260502122603 11 326 3.2 9.7 0.00 3.63 0.00 95 1016.9
20260502122504 11 324 3.2 9.7 0.00 3.63 0.00 95 1016.8
20260502122403 11 326 4.8 9.7 0.00 3.63 0.00 95 1016.8
20260502122301 11 326 4.8 9.7 0.00 3.63 0.00 95 1016.8
20260502122202 11 331 4.8 9.7 0.00 3.63 0.00 95 1016.8
20260502122102 11 330 4.8 9.7 0.00 3.63 0.00 95 1016.8
20260502122003 11 351 3.2 8.0 0.00 3.63 0.00 95 1016.8
20260502121902 11 351 3.2 8.0 0.00 3.63 0.00 95 1016.7
20260502121804 11 353 4.8 8.0 0.00 3.63 0.00 95 1016.8
20260502121703 11 354 3.2 8.0 0.00 3.63 0.00 95 1016.8
20260502121603 11 312 1.6 6.4 0.00 3.63 0.00 95 1016.8
20260502121502 11 310 3.2 6.4 0.00 3.63 0.00 95 1016.8
20260502121403 11 310 4.8 6.4 0.00 3.63 0.00 95 1016.7
20260502121302 11 323 4.8 6.4 0.00 3.63 0.00 95 1016.8
20260502121201 11 0 3.2 6.4 0.00 3.63 0.00 95 1016.8
20260502121103 11 16 3.2 6.4 0.00 3.63 0.00 95 1016.7
20260502121002 11 20 3.2 8.0 0.00 3.63 0.00 95 1016.7
20260502120903 11 21 3.2 8.0 0.00 3.63 0.00 95 1016.7
20260502120803 11 353 3.2 8.0 0.00 3.63 0.00 95 1016.7
20260502120702 11 354 3.2 8.0 0.00 3.63 0.00 95 1016.7
20260502120602 11 354 3.2 8.0 0.00 3.63 0.00 95 1016.8
20260502120504 11 353 3.2 8.0 0.00 3.63 0.00 95 1016.7
20260502120403 11 353 1.6 8.0 0.00 3.66 0.00 95 1016.7
20260502120302 11 351 3.2 8.0 0.00 3.66 0.00 95 1016.7
20260502120202 11 351 4.8 8.0 0.00 3.66 0.00 95 1016.7
20260502115902 11 345 1.6 6.4 0.00 3.68 0.00 95 1016.6
20260502115803 11 345 3.2 6.4 0.00 3.71 0.00 95 1016.5
20260502115702 11 345 3.2 8.0 0.00 3.71 0.00 95 1016.6
20260502115602 11 345 3.2 8.0 0.00 3.71 0.00 95 1016.6
20260502115503 11 344 3.2 9.7 0.00 3.71 0.00 95 1016.6
20260502115403 11 345 3.2 9.7 0.00 3.71 0.00 95 1016.5
20260502115306 11 353 3.2 9.7 0.00 3.71 0.00 95 1016.6
20260502115202 11 353 3.2 9.7 0.00 3.71 0.00 95 1016.5
20260502115103 11 351 3.2 9.7 0.00 3.71 0.00 95 1016.5
20260502115004 11 341 3.2 9.7 0.00 3.71 0.00 95 1016.5
20260502114901 11 345 4.8 9.7 0.00 3.71 0.00 95 1016.5
20260502114802 11 354 6.4 9.7 0.00 3.71 0.00 95 1016.5
20260502114704 11 351 4.8 9.7 0.00 3.71 0.00 95 1016.4
20260502114602 11 324 4.8 9.7 0.00 3.71 0.00 95 1016.5
20260502114503 11 0 4.8 9.7 0.00 3.71 0.00 95 1016.4
20260502114404 11 7 4.8 9.7 0.00 3.71 0.00 95 1016.4
20260502114302 11 345 4.8 9.7 0.00 3.71 0.00 95 1016.4
20260502114203 11 344 4.8 9.7 0.00 3.71 0.00 94 1016.5
20260502114103 11 347 6.4 9.7 0.00 3.71 0.00 94 1016.5
20260502114003 11 338 6.4 9.7 0.00 3.71 0.00 94 1016.5
20260502113901 11 343 6.4 9.7 0.00 3.71 0.00 95 1016.5
20260502113802 11 350 4.8 9.7 0.00 3.71 0.00 94 1016.5
20260502113703 11 351 4.8 9.7 0.00 3.71 0.00 94 1016.5
20260502113603 11 357 6.4 9.7 0.00 3.71 0.00 94 1016.5
20260502113504 11 327 6.4 9.7 0.00 3.71 0.00 94 1016.4
20260502113402 11 329 4.8 9.7 0.00 3.71 0.00 94 1016.4
20260502113302 11 348 4.8 11.3 0.00 3.71 0.00 94 1016.4
20260502113202 11 348 6.4 11.3 0.00 3.71 0.00 94 1016.3
20260502113101 11 347 6.4 11.3 0.00 3.71 0.00 94 1016.3
20260502113004 11 334 4.8 11.3 0.00 3.71 0.00 94 1016.2
20260502112902 11 350 4.8 11.3 0.00 3.71 0.00 94 1016.3
20260502112802 11 344 4.8 11.3 0.00 3.71 0.00 94 1016.2
20260502112703 11 345 4.8 11.3 0.00 3.71 0.00 94 1016.2
20260502112602 11 351 4.8 11.3 0.00 3.71 0.00 94 1016.2
20260502112502 11 324 6.4 11.3 0.00 3.71 0.00 94 1016.2
20260502112403 11 316 6.4 11.3 0.00 3.73 0.00 94 1016.1
20260502112305 11 337 4.8 8.0 0.00 3.73 0.00 94 1016.2
20260502112202 11 347 4.8 9.7 0.00 3.76 0.00 94 1016.2
20260502112103 11 357 4.8 9.7 0.00 3.76 0.00 94 1016.1
20260502112003 11 357 3.2 9.7 0.00 3.76 0.00 94 1016.2
20260502111903 11 357 3.2 9.7 0.00 3.76 0.00 94 1016.2
20260502111802 11 357 4.8 9.7 0.00 3.76 0.00 94 1016.2
20260502111703 11 0 4.8 9.7 0.00 3.76 0.00 94 1016.2
20260502111603 11 330 6.4 9.7 0.00 3.76 0.00 94 1016.1
20260502111503 11 326 6.4 11.3 0.00 3.76 0.00 94 1016.1
20260502111402 11 337 6.4 11.3 0.00 3.76 0.00 94 1016.1
20260502111304 11 330 6.4 11.3 0.00 3.76 0.00 94 1016.2
20260502111203 11 334 6.4 11.3 0.00 3.76 0.00 94 1016.2
20260502111103 11 355 4.8 11.3 0.00 3.76 0.00 94 1016.2
20260502111004 11 350 4.8 11.3 0.00 3.76 0.00 94 1016.2
20260502110902 11 341 4.8 11.3 0.00 3.76 0.00 94 1016.1
20260502110802 11 357 4.8 11.3 0.00 3.76 0.00 94 1016.2
20260502110703 11 341 8.0 11.3 0.00 3.76 0.00 94 1016.2
20260502110603 11 341 8.0 11.3 0.00 3.76 0.00 94 1016.1
20260502110502 11 338 8.0 11.3 0.00 3.76 0.00 94 1016.2
20260502110403 11 357 6.4 11.3 0.00 3.76 0.00 94 1016.1
20260502110303 11 344 6.4 9.7 0.00 3.76 0.00 94 1016.1
20260502110202 11 334 4.8 9.7 0.00 3.76 0.00 94 1016.1
20260502110103 11 333 6.4 9.7 0.00 3.76 0.00 94 1016.1
20260502110004 11 338 6.4 9.7 0.00 3.78 0.00 94 1016.1
20260502105904 11 338 6.4 9.7 0.00 3.78 0.00 94 1016.1
20260502105803 11 338 6.4 9.7 0.00 3.78 0.00 94 1016.0
20260502105702 11 326 6.4 9.7 0.00 3.81 0.00 94 1016.1
20260502105604 11 331 4.8 9.7 0.00 3.81 0.00 94 1015.9
20260502105503 11 331 4.8 8.0 0.00 3.81 0.00 94 1015.9
20260502105403 11 334 3.2 8.0 0.00 3.84 0.00 94 1015.9
20260502105306 11 353 3.2 8.0 0.00 3.84 0.00 94 1015.9
20260502105203 11 348 3.2 9.7 0.00 3.84 0.00 94 1015.9
20260502105101 11 348 3.2 9.7 0.00 3.84 0.00 94 1015.9
20260502105002 11 350 3.2 9.7 0.00 3.84 0.00 94 1015.9
20260502104903 11 357 4.8 9.7 0.00 3.84 0.00 94 1015.8
20260502104802 11 0 6.4 9.7 0.00 3.84 0.00 94 1015.8
20260502104703 11 0 4.8 11.3 0.00 3.84 0.00 94 1015.8
20260502104603 11 340 4.8 11.3 0.00 3.84 0.00 94 1015.7
20260502104502 11 4 4.8 11.3 0.00 3.84 0.00 94 1015.8
20260502104402 11 333 6.4 11.3 0.00 3.84 0.00 94 1015.7
20260502104304 11 0 6.4 11.3 0.00 3.84 0.00 94 1015.8
20260502104203 11 0 6.4 11.3 0.00 3.84 0.00 94 1015.7
20260502104104 11 28 6.4 11.3 0.00 3.84 0.00 94 1015.8
20260502104003 11 354 4.8 11.3 0.00 3.84 0.00 94 1015.8
20260502103854 11 0 6.4 11.3 0.00 3.86 0.00 94 1015.7
20260502103751 11 0 6.4 11.3 0.00 3.86 0.00 94 1015.7
20260502103650 11 357 4.8 11.3 0.00 3.91 0.00 94 1015.6
20260502103548 11 334 6.4 11.3 0.00 3.91 0.00 94 1015.7
20260502103445 11 0 6.4 11.3 0.00 3.91 0.00 94 1015.7
20260502103344 11 353 4.8 11.3 0.00 3.91 0.00 94 1015.7
20260502103245 11 357 4.8 11.3 0.00 3.96 0.00 94 1015.7
20260502103140 11 357 4.8 11.3 0.00 3.96 0.00 94 1015.7
20260502103041 11 345 6.4 11.3 0.00 4.01 0.00 94 1015.7
20260502102940 11 355 6.4 11.3 0.00 4.04 0.00 94 1015.7
20260502102838 11 357 6.4 11.3 0.00 4.06 0.00 94 1015.7
20260502102737 11 357 6.4 11.3 0.00 4.06 0.00 94 1015.7
20260502102636 11 353 6.4 9.7 0.00 4.09 0.00 94 1015.7
20260502102533 11 350 6.4 9.7 0.00 4.09 0.00 94 1015.7
20260502102431 11 347 6.4 9.7 0.00 4.09 0.00 94 1015.7
20260502102331 11 350 4.8 9.7 0.00 4.11 0.00 93 1015.7
20260502102231 11 348 4.8 11.3 0.00 4.11 0.00 93 1015.7
20260502102132 11 327 4.8 11.3 0.00 4.11 0.00 94 1015.7
20260502102031 11 345 4.8 11.3 0.00 4.11 0.00 93 1015.6
20260502101931 11 345 3.2 11.3 0.00 4.11 0.00 94 1015.6
20260502101832 11 338 4.8 11.3 0.00 4.11 0.00 94 1015.6
20260502101731 11 334 6.4 11.3 0.00 4.14 0.00 94 1015.6
20260502101631 11 354 6.4 11.3 0.00 4.14 0.00 94 1015.6
20260502101532 11 344 6.4 11.3 0.00 4.19 0.00 94 1015.5
20260502101431 11 343 6.4 11.3 0.00 4.19 0.00 94 1015.6
20260502101332 11 329 6.4 11.3 0.00 4.19 0.00 93 1015.5
20260502101232 11 341 6.4 9.7 0.00 4.19 0.00 93 1015.5
20260502101133 11 0 6.4 11.3 0.00 4.19 0.00 93 1015.4
20260502101032 11 348 4.8 11.3 0.00 4.19 0.00 93 1015.4
20260502100921 11 348 4.8 11.3 0.00 4.19 0.00 93 1015.4
20260502100821 11 348 4.8 11.3 0.00 4.19 0.00 93 1015.4
20260502100722 11 348 4.8 11.3 0.00 4.24 0.00 93 1015.3
20260502100620 11 348 4.8 11.3 0.00 4.24 0.00 93 1015.3
20260502100520 11 0 4.8 11.3 0.00 4.24 0.00 93 1015.3
20260502100420 11 338 6.4 14.5 0.00 4.24 0.00 93 1015.2
20260502100320 11 348 6.4 14.5 0.00 4.29 0.00 93 1015.2
20260502100220 11 0 8.0 14.5 0.00 4.29 0.00 93 1015.2
20260502100121 11 353 8.0 14.5 0.00 4.34 0.00 93 1015.2
20260502091520 11 17 3.2 11.3 0.00 5.59 0.00 92 1014.5
20260502091419 12 17 3.2 11.3 0.00 5.59 0.00 92 1014.5
20260502091319 12 4 3.2 11.3 0.00 5.59 0.00 92 1014.5
20260502091219 12 4 3.2 11.3 0.00 5.59 0.00 92 1014.4
20260502091119 12 3 3.2 11.3 0.00 5.59 0.00 92 1014.4
20260502091019 12 4 3.2 11.3 0.00 5.59 0.00 92 1014.3
20260502090919 12 3 4.8 11.3 0.00 5.59 0.00 92 1014.4
20260502090820 12 4 4.8 11.3 0.00 5.59 0.00 92 1014.4
20260502090719 12 18 3.2 11.3 0.00 5.59 0.00 92 1014.4
20260502090620 12 18 4.8 11.3 0.00 5.59 0.00 92 1014.4
20260502090521 12 17 4.8 11.3 0.00 5.59 0.00 92 1014.3
20260502090420 12 6 4.8 11.3 0.00 5.59 0.00 92 1014.3
20260502090319 12 20 4.8 11.3 0.00 5.59 0.00 92 1014.3
20260502090219 12 0 4.8 11.3 0.00 5.59 0.00 92 1014.2
20260502090120 12 0 6.4 11.3 0.00 5.59 0.00 92 1014.2
20260502071531 12 14 9.7 24.1 0.00 6.50 0.00 93 1014.2
20260502071431 12 38 9.7 24.1 0.00 6.50 0.00 94 1014.2
20260502071332 12 31 9.7 24.1 0.00 6.50 0.00 94 1014.2
20260502071230 12 45 8.0 24.1 0.00 6.50 0.00 94 1014.2
20260502071130 12 4 8.0 24.1 0.00 6.50 0.00 94 1014.2
20260502071032 12 32 9.7 24.1 0.00 6.50 0.00 94 1014.3
20260502070931 12 13 12.9 24.1 0.00 6.50 0.00 94 1014.3
20260502070831 12 28 9.7 24.1 0.00 6.50 0.00 94 1014.3
20260502070732 12 14 8.0 19.3 0.00 6.50 0.00 94 1014.3
20260502070633 12 14 8.0 19.3 0.00 6.50 0.00 94 1014.2
20260502070533 12 358 8.0 19.3 0.00 6.50 0.00 94 1014.3
20260502070432 12 358 8.0 19.3 0.00 6.50 0.00 94 1014.3
20260502070321 12 4 8.0 19.3 0.00 6.50 0.00 94 1014.2
20260502070222 12 0 8.0 19.3 0.00 6.50 0.00 94 1014.3
20260502070119 12 23 9.7 19.3 0.00 6.50 0.00 94 1014.3
20260502070017 12 66 11.3 19.3 0.00 6.50 0.00 94 1014.2
20260502065916 12 20 12.9 19.3 0.00 6.50 0.00 94 1014.2
20260502065816 12 20 12.9 19.3 0.00 6.50 0.00 94 1014.2
20260502065716 12 6 12.9 19.3 0.00 6.50 0.00 94 1014.2
20260502065618 12 42 11.3 19.3 0.00 6.50 0.00 94 1014.2
20260502065518 12 23 9.7 19.3 0.00 6.50 0.00 94 1014.2
20260502065416 12 31 8.0 19.3 0.00 6.50 0.00 94 1014.2
20260502065317 12 10 8.0 19.3 0.00 6.50 0.00 94 1014.2
20260502065215 12 39 8.0 19.3 0.00 6.50 0.00 94 1014.1
20260502065115 12 38 8.0 19.3 0.00 6.50 0.00 94 1014.1
20260502065012 12 13 11.3 19.3 0.00 6.50 0.00 94 1014.1
20260502064910 12 8 12.9 19.3 0.00 6.50 0.00 94 1014.1
20260502064811 12 21 11.3 17.7 0.00 6.50 0.00 94 1014.0
20260502064705 12 20 9.7 17.7 0.00 6.50 0.00 94 1014.0
20260502064603 12 41 8.0 20.9 0.00 6.50 0.00 94 1014.0
20260502064504 12 24 9.7 20.9 0.00 6.50 0.00 94 1013.9
20260502064402 12 0 8.0 22.5 0.00 6.50 0.00 94 1014.0
20260502064303 12 357 9.7 22.5 0.00 6.50 0.00 94 1014.0
20260502064203 12 0 9.7 22.5 0.00 6.50 0.00 94 1014.0
20260502064103 12 37 9.7 22.5 0.00 6.50 0.00 94 1014.0
20260502064005 12 21 9.7 22.5 0.00 6.50 0.00 94 1013.9
20260502063902 12 11 9.7 22.5 0.00 6.50 0.00 94 1013.9
20260502063802 12 16 12.9 22.5 0.00 6.50 0.00 94 1013.9
20260502063703 12 37 14.5 22.5 0.00 6.50 0.00 94 1014.0
20260502063602 12 62 14.5 22.5 0.00 6.50 0.00 94 1014.0
20260502063502 12 39 11.3 22.5 0.00 6.50 0.00 94 1013.9
20260502063402 12 34 9.7 20.9 0.00 6.50 0.00 94 1014.0
20260502063302 12 20 9.7 20.9 0.00 6.50 0.00 94 1014.0
20260502063202 12 34 9.7 20.9 0.00 6.50 0.00 94 1014.0
20260502063102 12 39 8.0 20.9 0.00 6.50 0.00 94 1014.0
20260502063003 12 20 9.7 25.7 0.00 6.50 0.00 94 1014.0
20260502062902 12 42 9.7 25.7 0.00 6.50 0.00 94 1014.0
20260502062802 12 18 9.7 25.7 0.00 6.50 0.00 94 1013.9
20260502062703 12 0 14.5 25.7 0.00 6.50 0.00 94 1013.9
20260502062603 12 54 12.9 25.7 0.00 6.50 0.00 94 1014.0
20260502062502 12 8 9.7 25.7 0.00 6.50 0.00 94 1014.0
20260502062402 12 30 11.3 27.4 0.00 6.50 0.00 94 1014.0
20260502062306 12 27 12.9 29.0 0.00 6.50 0.00 94 1014.0
20260502062202 12 13 12.9 29.0 0.00 6.50 0.00 94 1014.0
20260502062101 12 38 11.3 29.0 0.00 6.50 0.00 94 1014.0
20260502062003 12 44 9.7 29.0 0.00 6.50 0.00 94 1014.0
20260502061903 12 345 9.7 29.0 0.00 6.50 0.00 94 1014.1
20260502061802 12 16 14.5 29.0 0.00 6.50 0.00 94 1014.0
20260502061703 12 54 14.5 29.0 0.00 6.50 0.00 94 1014.0
20260502061604 12 55 16.1 29.0 0.00 6.50 0.00 94 1014.0
20260502061502 12 21 17.7 29.0 0.00 6.50 0.00 94 1013.9
20260502061402 12 42 11.3 29.0 0.00 6.50 0.00 94 1014.0
20260502061303 12 34 8.0 20.9 0.00 6.50 0.00 94 1014.0
20260502061203 12 8 11.3 20.9 0.00 6.50 0.00 94 1014.1
20260502061103 12 18 12.9 20.9 0.00 6.50 0.00 94 1014.0
20260502061002 12 31 14.5 20.9 0.00 6.50 0.00 94 1014.0
20260502060903 12 17 12.9 20.9 0.00 6.50 0.00 94 1014.0
20260502060802 12 7 9.7 19.3 0.00 6.50 0.00 94 1014.0
20260502060702 12 7 9.7 19.3 0.00 6.50 0.00 94 1014.0
20260502060603 12 0 11.3 19.3 0.00 6.50 0.00 94 1014.0
20260502060502 12 14 9.7 19.3 0.00 6.50 0.00 95 1014.1
20260502060403 12 24 11.3 19.3 0.00 6.50 0.00 94 1014.0
20260502060303 12 17 11.3 19.3 0.00 6.50 0.00 94 1014.0
20260502060202 12 48 9.7 19.3 0.00 6.53 0.00 94 1014.0
20260502060104 12 10 8.0 19.3 0.00 6.53 0.00 94 1014.0
20260502060002 12 0 9.7 19.3 0.00 6.53 0.00 94 1013.9
20260502055903 12 338 9.7 19.3 0.00 6.53 0.00 94 1013.9
20260502055802 12 27 8.0 19.3 0.00 6.53 0.00 94 1013.8
20260502055701 12 17 11.3 19.3 0.00 6.53 0.00 95 1013.9
20260502055603 12 358 11.3 19.3 0.00 6.53 0.00 94 1013.9
20260502055504 12 25 11.3 20.9 0.00 6.53 0.00 95 1013.9
20260502055402 12 7 12.9 20.9 0.00 6.53 0.00 94 1013.8
20260502055305 12 28 11.3 24.1 0.00 6.53 0.00 94 1013.8
20260502055202 12 39 11.3 24.1 0.00 6.55 0.00 94 1013.8
20260502055101 12 20 9.7 24.1 0.00 6.55 0.00 94 1013.9
20260502055002 12 18 9.7 24.1 0.00 6.55 0.00 94 1013.8
20260502054904 12 16 9.7 27.4 0.00 6.55 0.00 95 1013.7
20260502054802 12 0 9.7 27.4 0.00 6.55 0.00 95 1013.8
20260502054701 12 28 11.3 27.4 0.00 6.55 0.00 94 1013.7
20260502054603 12 8 14.5 27.4 0.00 6.55 0.00 95 1013.7
20260502054504 12 24 16.1 27.4 0.00 6.55 0.00 94 1013.7
20260502054402 12 21 16.1 27.4 0.00 6.55 0.00 94 1013.8
20260502054302 12 6 12.9 29.0 0.00 6.55 0.00 94 1013.7
20260502054203 12 14 11.3 29.0 0.00 6.55 0.00 94 1013.8
20260502054102 12 17 12.9 33.8 0.00 6.55 0.00 95 1013.8
20260502054004 12 14 16.1 33.8 0.00 6.55 0.00 95 1013.8
20260502053904 12 1 12.9 33.8 0.00 6.55 0.00 94 1013.9
20260502053802 12 14 11.3 33.8 0.00 6.55 0.00 95 1013.8
20260502053703 12 24 9.7 33.8 0.00 6.55 0.00 95 1013.9
20260502053603 12 0 11.3 33.8 0.00 6.55 0.00 94 1013.8
20260502053505 12 17 16.1 33.8 0.00 6.55 0.00 94 1013.9
20260502053404 12 25 17.7 33.8 0.00 6.55 0.00 95 1013.9
20260502053302 12 343 16.1 33.8 0.00 6.58 0.00 95 1014.0
20260502053203 12 24 14.5 33.8 0.00 6.58 0.00 95 1014.0
20260502053102 12 10 14.5 29.0 0.00 6.58 0.00 95 1014.0
20260502053002 12 6 14.5 29.0 0.00 6.58 0.00 95 1014.0
20260502052902 12 31 9.7 29.0 0.00 6.58 0.00 95 1014.0
20260502052803 12 13 12.9 29.0 0.00 6.58 0.00 95 1014.0
20260502052703 12 24 16.1 29.0 0.00 6.58 0.00 95 1013.9
20260502052603 12 6 16.1 29.0 0.00 6.58 0.00 95 1013.9
20260502052504 12 27 14.5 29.0 0.00 6.58 0.00 95 1014.0
20260502052403 12 32 9.7 29.0 0.00 6.58 0.00 95 1013.9
20260502052305 12 30 8.0 29.0 0.00 6.60 0.00 95 1013.9
20260502052203 12 21 9.7 29.0 0.00 6.60 0.00 95 1014.0
20260502052102 12 20 14.5 29.0 0.00 6.60 0.00 95 1014.0
20260502052004 12 11 14.5 29.0 0.00 6.60 0.00 95 1014.0
20260502051903 12 25 11.3 24.1 0.00 6.60 0.00 95 1014.0
20260502051804 12 16 11.3 24.1 0.00 6.63 0.00 95 1014.0
20260502051701 12 0 12.9 24.1 0.00 6.63 0.00 95 1014.0
20260502051603 12 25 16.1 24.1 0.00 6.65 0.00 95 1014.0
20260502051503 13 0 14.5 24.1 0.00 6.68 0.00 95 1013.9
20260502051403 13 24 11.3 24.1 0.00 6.68 0.00 95 1013.9
20260502051304 13 42 9.7 24.1 0.00 6.73 0.00 95 1013.9
20260502051201 13 35 9.7 24.1 0.00 6.73 0.00 95 1014.0
20260502051102 13 331 11.3 24.1 0.00 6.73 0.00 95 1013.9
20260502051002 13 47 12.9 24.1 0.00 6.78 0.00 95 1013.9
20260502050901 13 38 16.1 24.1 0.00 6.86 0.00 95 1014.0
20260502050803 13 10 14.5 24.1 0.00 6.86 0.00 95 1013.9
20260502050703 13 17 11.3 20.9 0.00 6.86 0.00 95 1013.9
20260502050601 13 27 12.9 22.5 0.00 6.86 0.00 95 1013.9
20260502050504 13 10 14.5 22.5 0.00 6.86 0.00 95 1013.9
20260502050403 13 31 9.7 22.5 0.00 6.91 0.00 95 1013.9
20260502050302 13 31 6.4 22.5 0.00 6.93 0.00 95 1013.9
20260502050201 13 34 6.4 22.5 0.00 6.96 0.00 95 1013.9
20260502050002 13 25 8.0 22.5 0.00 7.01 0.00 95 1014.0
20260502045902 13 358 8.0 22.5 0.00 7.01 7.52 95 1013.9
20260502045803 13 16 12.9 22.5 0.00 7.01 7.52 95 1013.9
20260502045703 13 28 12.9 22.5 0.00 7.01 7.52 95 1014.0
20260502045603 13 21 9.7 20.9 0.00 7.01 7.52 95 1013.9
20260502045502 13 24 11.3 20.9 0.00 7.01 7.52 95 1013.9
20260502045404 13 49 9.7 24.1 0.00 7.01 7.52 95 1014.0
20260502045305 13 47 9.7 24.1 0.00 7.01 7.52 95 1013.9
20260502045202 13 11 9.7 24.1 0.00 7.01 7.52 95 1013.9
20260502045104 13 0 12.9 24.1 0.00 7.01 7.52 95 1013.9
20260502045004 13 32 9.7 24.1 0.00 7.01 7.52 95 1013.9
20260502044904 13 28 9.7 24.1 0.00 7.01 7.52 95 1013.9
20260502044802 13 0 14.5 24.1 0.00 7.01 7.52 95 1014.0
20260502044702 13 23 14.5 24.1 0.00 7.01 7.52 95 1014.0
20260502044602 13 30 12.9 24.1 0.00 7.01 7.52 95 1014.0
20260502044504 13 13 14.5 24.1 0.00 7.01 7.52 95 1014.0
20260502044403 13 35 11.3 22.5 0.00 7.01 7.52 95 1014.0
20260502044301 13 10 6.4 19.3 0.00 7.01 7.52 95 1014.0
20260502044202 13 358 9.7 19.3 0.00 7.01 7.52 95 1014.0
20260502044103 13 358 11.3 19.3 0.00 7.01 7.52 95 1014.0
20260502044003 13 11 12.9 20.9 0.00 7.01 7.52 95 1014.1
20260502043904 13 20 11.3 20.9 0.00 7.01 7.52 95 1014.0
20260502043803 13 27 6.4 24.1 0.00 7.01 7.52 95 1014.0
20260502043703 13 14 9.7 29.0 0.00 7.01 7.52 95 1014.0
20260502043604 13 14 9.7 29.0 0.00 7.01 7.52 95 1013.9
20260502043503 13 32 11.3 29.0 0.00 7.01 7.52 95 1013.8
20260502043404 13 16 9.7 29.0 0.00 7.01 7.52 95 1013.8
20260502043303 13 358 9.7 29.0 0.00 7.01 7.52 95 1013.8
20260502043204 13 38 14.5 29.0 0.00 7.01 7.52 95 1013.8
20260502043103 13 41 14.5 29.0 0.00 7.01 7.52 95 1013.8
20260502043006 13 28 14.5 29.0 0.00 7.01 7.52 95 1013.8
20260502042904 13 30 19.3 29.0 0.00 7.01 7.52 95 1013.7
20260502042802 13 0 16.1 29.0 0.00 7.01 7.52 95 1013.8
20260502042704 13 62 11.3 20.9 0.00 7.01 7.52 95 1013.8
20260502042603 13 7 9.7 20.9 0.00 7.01 7.52 95 1013.8
20260502042504 13 39 6.4 20.9 0.00 7.01 7.52 95 1013.9
20260502042404 13 0 8.0 20.9 0.00 7.01 7.52 95 1013.8
20260502042305 13 0 11.3 20.9 0.00 7.01 7.52 95 1013.8
20260502042201 13 10 14.5 20.9 0.00 7.01 7.52 95 1013.9
20260502042102 13 355 11.3 20.9 0.00 7.01 7.52 95 1013.9
20260502042004 13 347 9.7 20.9 0.00 7.01 7.52 95 1013.9
20260502041901 13 25 9.7 20.9 0.00 7.01 7.52 95 1013.9
20260502041801 13 1 11.3 20.9 0.00 7.01 7.52 95 1013.9
20260502041703 13 0 12.9 24.1 0.00 7.01 7.52 95 1014.0
20260502041602 13 348 11.3 24.1 0.00 7.01 7.52 95 1014.0
20260502041501 13 324 12.9 24.1 0.00 7.01 7.52 95 1013.9
20260502041404 13 7 11.3 24.1 0.00 7.01 7.52 95 1014.0
20260502041304 13 350 8.0 24.1 0.00 7.01 7.52 95 1014.0
20260502041202 13 358 9.7 24.1 0.00 7.01 7.52 95 1014.0
20260502041102 13 348 9.7 24.1 0.00 7.01 7.52 95 1014.0
20260502041004 13 10 11.3 24.1 0.00 7.01 7.52 95 1013.9
20260502040902 13 20 14.5 24.1 0.00 7.01 7.52 95 1014.0
20260502040801 13 1 14.5 24.1 0.00 7.01 7.52 95 1013.9
20260502040703 13 14 11.3 24.1 0.03 7.01 7.52 95 1013.9
20260502040604 13 37 9.7 32.2 0.03 7.01 7.52 95 1013.9
20260502040502 13 11 9.7 32.2 0.03 7.01 7.52 95 1013.9
20260502040401 13 21 9.7 32.2 0.03 7.01 7.52 95 1014.0
20260502040300 13 18 11.3 32.2 0.03 7.01 7.52 95 1013.9
20260502040158 13 38 12.9 32.2 0.03 7.01 7.52 95 1013.9
20260502040059 13 13 9.7 32.2 0.03 7.01 7.52 95 1014.0
20260502035958 13 8 12.9 32.2 0.03 6.99 7.52 95 1013.9
20260502035857 13 334 12.9 32.2 0.03 6.99 7.52 95 1013.9
20260502035756 13 0 12.9 32.2 0.03 6.99 7.52 95 1014.0
20260502035654 13 0 14.5 32.2 0.03 6.99 7.52 95 1013.9
20260502035553 13 30 11.3 32.2 0.03 6.99 7.52 95 1013.8
20260502035451 13 28 16.1 32.2 0.03 6.99 7.52 95 1013.8
20260502035339 13 34 14.5 32.2 0.03 6.99 7.52 95 1013.7
20260502035238 13 350 14.5 32.2 0.03 6.99 7.52 95 1013.7
20260502035137 13 0 14.5 32.2 0.03 6.99 7.52 95 1013.7
20260502035034 13 17 16.1 32.2 0.03 6.99 7.52 95 1013.6
20260502034933 13 18 17.7 32.2 0.03 6.99 7.52 95 1013.5
20260502034832 13 0 16.1 32.2 0.03 6.99 7.52 95 1013.6
20260502034731 13 13 16.1 29.0 0.03 6.99 7.52 95 1013.5
20260502034631 13 0 16.1 29.0 0.03 6.99 7.52 95 1013.5
20260502034532 13 333 11.3 29.0 0.03 6.99 7.52 95 1013.5
20260502034431 13 358 11.3 25.7 0.03 6.99 7.52 95 1013.7
20260502034332 13 10 11.3 25.7 0.03 6.99 7.52 95 1013.6
20260502034230 13 358 11.3 25.7 0.03 6.99 7.52 95 1013.5
20260502034132 13 337 14.5 25.7 0.03 6.99 7.52 95 1013.5
20260502034030 13 32 14.5 25.7 0.03 6.99 7.52 95 1013.5
20260502033928 13 343 14.5 25.7 0.03 6.99 7.52 95 1013.5
20260502033827 13 355 12.9 25.7 0.03 6.99 7.52 95 1013.5
20260502033725 13 344 14.5 25.7 0.03 6.99 7.52 95 1013.4
20260502033625 13 357 14.5 25.7 0.03 6.99 7.52 95 1013.5
20260502033523 13 348 14.5 25.7 0.03 6.99 7.52 95 1013.4
20260502033421 13 0 14.5 24.1 0.03 6.99 7.52 95 1013.5
20260502033319 13 10 11.3 20.9 0.05 6.99 7.52 95 1013.4
20260502033217 13 1 9.7 22.5 0.05 6.99 7.52 95 1013.4
20260502033117 13 0 9.7 27.4 0.05 6.99 7.52 95 1013.3
20260502033016 13 20 9.7 27.4 0.05 6.99 7.52 95 1013.3
20260502032914 13 350 9.7 27.4 0.05 6.99 7.52 95 1013.4
20260502032813 13 358 11.3 27.4 0.05 6.99 7.52 95 1013.3
20260502032711 13 1 9.7 27.4 0.05 6.99 7.52 95 1013.3
20260502032611 13 351 8.0 27.4 0.05 6.99 7.52 95 1013.1
20260502032513 13 354 9.7 27.4 0.05 6.99 7.52 95 1013.3
20260502032412 13 6 12.9 27.4 0.05 6.99 7.52 95 1013.2
20260502032312 13 18 16.1 27.4 0.05 6.99 7.52 95 1013.0
20260502032211 13 7 14.5 25.7 0.05 6.99 7.52 95 1013.1
20260502032112 13 24 14.5 24.1 0.05 6.99 7.52 95 1013.1
20260502032013 13 357 12.9 24.1 0.05 6.99 7.52 95 1013.0
20260502031912 13 1 9.7 24.1 0.05 6.99 7.52 95 1013.0
20260502031812 13 357 11.3 24.1 0.05 6.99 7.52 95 1013.0
20260502031711 13 39 14.5 24.1 0.05 6.99 7.52 95 1013.0
20260502031611 13 357 12.9 25.7 0.05 6.99 7.52 95 1013.0
20260502031512 13 1 9.7 25.7 0.05 6.99 7.52 95 1012.9
20260502031413 13 14 12.9 25.7 0.05 6.99 7.52 95 1012.8
20260502031312 13 39 11.3 25.7 0.08 6.99 7.52 95 1012.9
20260502031211 13 1 11.3 25.7 0.08 6.99 7.52 95 1012.9
20260502031112 13 4 11.3 25.7 0.08 6.99 7.52 95 1012.9
20260502031011 13 28 11.3 25.7 0.08 6.99 7.52 95 1012.9
20260502030913 13 20 12.9 25.7 0.08 6.99 7.52 95 1012.9
20260502030812 13 334 14.5 25.7 0.08 6.99 7.52 95 1012.8
20260502030712 13 3 11.3 25.7 0.08 6.99 7.49 95 1012.9
20260502030611 13 354 11.3 33.8 0.05 6.99 7.49 95 1012.8
20260502030513 13 16 14.5 33.8 0.05 6.99 7.49 95 1012.8
20260502030411 13 6 14.5 33.8 0.05 6.99 7.49 95 1012.7
20260502030312 13 32 11.3 33.8 0.05 6.99 7.49 95 1012.6
20260502030213 13 355 9.7 33.8 0.05 6.99 7.49 95 1012.5
20260502030112 13 0 11.3 33.8 0.05 6.99 7.49 95 1012.4
20260502030011 13 4 9.7 33.8 0.05 6.93 7.49 95 1012.3
20260502025911 13 28 12.9 33.8 0.05 6.93 7.49 95 1012.2
20260502025811 13 31 19.3 33.8 0.05 6.93 7.49 95 1012.2
20260502025712 13 6 20.9 33.8 0.05 6.93 7.49 95 1012.1
20260502025612 13 20 14.5 29.0 0.05 6.93 7.49 95 1012.2
20260502025511 13 3 11.3 29.0 0.05 6.93 7.49 95 1012.3
20260502025412 13 3 9.7 29.0 0.05 6.93 7.49 95 1012.4
20260502025311 13 17 14.5 29.0 0.05 6.93 7.49 95 1012.5
20260502025210 13 30 17.7 30.6 0.05 6.93 7.49 95 1012.5
20260502025111 13 336 16.1 30.6 0.05 6.93 7.49 95 1012.4
20260502025010 13 355 14.5 30.6 0.08 6.93 7.49 95 1012.4
20260502024911 13 4 14.5 30.6 0.08 6.93 7.49 95 1012.3
20260502024810 13 350 14.5 30.6 0.08 6.93 7.49 95 1012.2
20260502024710 13 31 16.1 30.6 0.08 6.93 7.49 95 1012.2
20260502024612 13 343 17.7 30.6 0.08 6.93 7.49 95 1012.2
20260502024511 13 0 14.5 30.6 0.08 6.93 7.49 96 1012.2
20260502024411 13 16 14.5 30.6 0.08 6.93 7.49 95 1012.1
20260502024311 13 28 14.5 30.6 0.08 6.93 7.49 96 1012.0
20260502024210 13 18 14.5 25.7 0.08 6.93 7.49 95 1012.1
20260502024110 13 28 16.1 25.7 0.08 6.93 7.49 96 1012.0
20260502024012 13 37 14.5 25.7 0.08 6.93 7.49 96 1012.2
20260502023910 13 6 12.9 25.7 0.08 6.93 7.49 96 1012.2
20260502023811 13 0 12.9 25.7 0.08 6.93 7.49 95 1012.3
20260502023710 13 353 16.1 25.7 0.10 6.93 7.49 95 1012.3
20260502023611 13 358 17.7 25.7 0.10 6.93 7.49 95 1012.5
20260502023510 13 17 17.7 24.1 0.10 6.93 7.49 95 1012.5
20260502023411 13 341 17.7 24.1 0.13 6.93 7.49 96 1012.5
20260502023311 13 0 9.7 24.1 0.10 6.93 7.47 95 1012.6
20260502023212 13 0 9.7 24.1 0.10 6.93 7.47 95 1012.6
20260502023111 13 0 9.7 24.1 0.10 6.93 7.47 95 1012.6
20260502023012 13 0 9.7 24.1 0.10 6.93 7.47 95 1012.4
20260502022911 13 8 9.7 24.1 0.10 6.93 7.47 95 1012.5
20260502022810 13 358 12.9 24.1 0.13 6.93 7.47 95 1012.5
20260502022711 13 358 14.5 24.1 0.13 6.93 7.47 95 1012.6
20260502022611 13 18 14.5 24.1 0.13 6.93 7.47 95 1012.5
20260502022510 13 358 14.5 22.5 0.13 6.93 7.47 95 1012.4
20260502022411 13 13 12.9 22.5 0.15 6.93 7.47 95 1012.3
20260502022311 13 4 9.7 24.1 0.15 6.93 7.47 95 1012.2
20260502022211 13 37 12.9 24.1 0.15 6.93 7.47 95 1012.2
20260502022111 13 8 14.5 24.1 0.15 6.93 7.47 95 1012.1
20260502022010 13 30 14.5 24.1 0.15 6.93 7.47 95 1012.0
20260502021911 13 0 11.3 24.1 0.18 6.93 7.47 95 1012.1
20260502021810 13 345 9.7 24.1 0.18 6.93 7.47 95 1012.1
20260502021711 13 16 11.3 24.1 0.18 6.93 7.47 95 1012.1
20260502021611 13 17 11.3 24.1 0.18 6.93 7.47 95 1012.2
20260502021510 13 336 14.5 24.1 0.18 6.93 7.47 95 1012.2
20260502021410 13 16 16.1 24.1 0.18 6.93 7.44 95 1012.2
20260502021310 13 11 12.9 22.5 0.15 6.93 7.44 95 1012.2
20260502021210 13 0 12.9 22.5 0.15 6.93 7.44 95 1012.3
20260502021110 13 7 14.5 22.5 0.15 6.93 7.44 95 1012.2
20260502021010 13 37 12.9 22.5 0.15 6.93 7.44 95 1012.3
20260502020912 13 1 11.3 22.5 0.15 6.93 7.44 95 1012.3
20260502020811 13 3 14.5 22.5 0.15 6.93 7.44 95 1012.2
20260502020710 13 0 11.3 22.5 0.15 6.93 7.44 95 1012.2
20260502020610 13 24 9.7 19.3 0.18 6.93 7.44 95 1012.3
20260502020512 13 7 11.3 19.3 0.18 6.93 7.44 95 1012.2
20260502020410 13 341 11.3 19.3 0.18 6.93 7.44 95 1012.2
20260502020310 13 0 11.3 22.5 0.18 6.93 7.44 95 1012.2
20260502020209 13 11 11.3 22.5 0.18 6.93 7.44 95 1012.2
20260502020110 13 0 9.7 22.5 0.18 6.93 7.44 96 1012.3
20260502020009 13 355 9.7 27.4 0.18 6.76 7.44 96 1012.2
20260502015909 13 0 9.7 27.4 0.18 6.76 7.44 96 1012.3
20260502015811 13 336 9.7 27.4 0.18 6.76 7.44 96 1012.1
20260502015710 13 0 12.9 27.4 0.18 6.76 7.44 96 1012.1
20260502015610 13 358 12.9 27.4 0.18 6.76 7.44 95 1012.1
20260502015510 13 358 12.9 27.4 0.20 6.76 7.44 95 1012.1
20260502015410 13 17 12.9 27.4 0.20 6.76 7.44 95 1012.0
20260502015309 13 21 12.9 27.4 0.20 6.76 7.44 95 1012.0
20260502015209 13 358 16.1 27.4 0.23 6.76 7.44 95 1012.1
20260502015109 13 354 14.5 27.4 0.23 6.76 7.44 95 1012.1
20260502015009 13 0 9.7 24.1 0.20 6.76 7.42 95 1012.0
20260502014909 14 358 11.3 30.6 0.23 6.76 7.42 95 1011.9
20260502014810 14 0 11.3 30.6 0.23 6.76 7.42 95 1011.9
20260502014709 14 314 12.9 30.6 0.25 6.76 7.42 95 1011.8
20260502014612 14 329 12.9 30.6 0.25 6.76 7.42 95 1011.8
20260502014509 14 337 9.7 30.6 0.25 6.76 7.42 95 1011.7
20260502014410 14 0 11.3 30.6 0.25 6.76 7.42 95 1011.7
20260502014309 14 4 11.3 30.6 0.28 6.76 7.42 95 1011.6
20260502014210 14 4 11.3 30.6 0.28 6.76 7.42 95 1011.6
20260502014111 14 31 14.5 30.6 0.30 6.76 7.42 95 1011.4
20260502014010 14 0 19.3 30.6 0.30 6.76 7.42 95 1011.4
20260502013910 14 24 17.7 27.4 0.33 6.76 7.42 95 1011.4
20260502013810 14 337 12.9 20.9 0.33 6.76 7.39 96 1011.3
20260502013709 14 11 11.3 24.1 0.30 6.76 7.39 96 1011.4
20260502013609 14 13 11.3 25.7 0.30 6.76 7.39 96 1011.4
20260502013509 14 11 9.7 25.7 0.33 6.76 7.39 96 1011.4
20260502013410 14 8 12.9 25.7 0.30 6.76 7.37 95 1011.4
20260502013310 14 8 12.9 25.7 0.30 6.76 7.37 95 1011.3
20260502013210 14 8 12.9 25.7 0.30 6.76 7.37 95 1011.4
20260502013110 14 8 12.9 25.7 0.30 6.76 7.37 95 1011.2
20260502013010 14 0 12.9 25.7 0.30 6.76 7.37 95 1011.2
20260502012909 14 338 12.9 25.7 0.33 6.76 7.37 95 1011.2
20260502012808 14 0 14.5 25.7 0.30 6.76 7.34 95 1011.1
20260502012710 14 41 16.1 25.7 0.30 6.76 7.34 95 1011.1
20260502012608 14 4 12.9 19.3 0.30 6.76 7.34 95 1011.2
20260502012508 14 344 9.7 17.7 0.30 6.76 7.32 96 1011.3
20260502012405 14 41 6.4 17.7 0.28 6.76 7.32 96 1011.3
20260502012306 14 0 4.8 17.7 0.30 6.76 7.32 96 1011.4
20260502012203 14 21 6.4 17.7 0.30 6.76 7.32 96 1011.4
20260502012102 14 24 9.7 17.7 0.30 6.76 7.32 95 1011.4
20260502012004 14 20 11.3 17.7 0.30 6.76 7.29 95 1011.4
20260502011904 14 54 9.7 17.7 0.28 6.76 7.29 96 1011.4
20260502011801 14 13 9.7 17.7 0.28 6.76 7.29 95 1011.4
20260502011704 14 1 8.0 16.1 0.28 6.76 7.29 95 1011.6
20260502011603 14 11 6.4 17.7 0.28 6.76 7.29 95 1011.7
20260502011503 14 334 6.4 17.7 0.28 6.76 7.29 95 1011.8
20260502011401 14 358 6.4 17.7 0.30 6.76 7.29 95 1011.8
20260502011302 14 358 8.0 17.7 0.30 6.76 7.29 95 1011.9
20260502011202 14 340 8.0 17.7 0.30 6.76 7.29 95 1011.9
20260502011104 14 333 9.7 17.7 0.30 6.76 7.29 95 1011.9
20260502011002 14 331 9.7 17.7 0.30 6.76 7.29 95 1011.7
20260502010904 14 333 9.7 17.7 0.33 6.76 7.29 95 1011.6
20260502010802 14 350 9.7 19.3 0.33 6.76 7.29 95 1011.6
20260502010703 14 0 12.9 19.3 0.33 6.76 7.26 95 1011.5
20260502010603 14 324 9.7 19.3 0.30 6.76 7.26 95 1011.5
20260502010503 14 324 9.7 24.1 0.33 6.76 7.26 95 1011.4
20260502010403 14 324 9.7 24.1 0.33 6.76 7.26 95 1011.4
20260502010303 14 324 9.7 24.1 0.33 6.76 7.26 95 1011.4
20260502010203 14 312 9.7 24.1 0.33 6.76 7.26 95 1011.2
20260502010004 14 353 11.3 25.7 0.36 6.40 7.26 95 1011.0
20260502005903 14 350 11.3 25.7 0.36 6.40 7.26 95 1010.8
20260502005802 14 358 9.7 25.7 0.36 6.40 7.26 95 1010.6
20260502005702 14 324 14.5 25.7 0.36 6.40 7.26 95 1010.4
20260502005603 14 18 16.1 25.7 0.36 6.40 7.24 95 1010.2
20260502005503 14 4 14.5 25.7 0.33 6.40 7.24 95 1010.2
20260502005402 14 0 14.5 25.7 0.33 6.40 7.24 95 1010.1
20260502005305 14 6 14.5 25.7 0.33 6.40 7.24 95 1009.9
20260502005205 14 11 12.9 25.7 0.30 6.40 7.21 95 1010.0
20260502005103 14 31 11.3 22.5 0.30 6.40 7.21 96 1009.9
20260502005004 14 18 9.7 22.5 0.30 6.40 7.19 95 1010.0
20260502004902 14 358 9.7 22.5 0.28 6.40 7.19 95 1009.9
20260502004803 14 8 8.0 22.5 0.28 6.40 7.16 95 1010.0
20260502004704 14 0 11.3 22.5 0.25 6.40 7.16 95 1009.9
20260502004602 14 13 11.3 22.5 0.25 6.40 7.16 95 1009.9
20260502004504 14 1 11.3 20.9 0.25 6.40 7.16 95 1010.0
20260502004403 15 31 12.9 24.1 0.25 6.40 7.14 95 1010.1
20260502004304 15 11 14.5 24.1 0.23 6.40 7.14 95 1010.1
20260502004202 15 0 11.3 24.1 0.23 6.40 7.11 96 1010.3
20260502004102 15 0 9.7 24.1 0.20 6.40 7.11 95 1010.3
20260502004004 14 0 11.3 24.1 0.20 6.40 7.09 95 1010.4
20260502003903 14 27 11.3 24.1 0.18 6.40 7.09 95 1010.4
20260502003803 14 330 12.9 24.1 0.20 6.40 7.09 95 1010.4
20260502003702 14 329 11.3 24.1 0.20 6.40 7.09 95 1010.3
20260502003602 14 358 12.9 24.1 0.20 6.40 7.06 95 1010.2
20260502003503 14 11 12.9 24.1 0.18 6.40 7.06 95 1010.1
20260502003402 14 358 12.9 20.9 0.18 6.40 7.06 95 1010.1
20260502003302 15 353 11.3 20.9 0.20 6.40 7.06 95 1010.2
20260502003201 15 347 9.7 25.7 0.20 6.40 7.06 95 1010.2
20260502003102 15 0 9.7 25.7 0.20 6.40 7.06 95 1010.2
20260502003002 15 7 12.9 25.7 0.20 6.40 7.04 95 1010.3
20260502002902 15 0 11.3 25.7 0.20 6.40 7.04 95 1010.3
20260502002803 15 0 11.3 25.7 0.30 6.40 7.04 95 1010.3
20260502002703 15 299 12.9 25.7 0.30 6.40 7.04 95 1010.2
20260502002602 15 8 12.9 25.7 0.30 6.40 7.04 95 1010.2
20260502002504 15 306 12.9 25.7 0.30 6.40 7.04 95 1010.0
20260502002403 15 0 14.5 25.7 0.30 6.40 7.01 95 1009.9
20260502002305 15 32 14.5 25.7 0.30 6.40 7.01 95 1009.9
20260502002203 15 11 12.9 22.5 0.30 6.40 7.01 95 1009.8
20260502002103 15 0 12.9 22.5 0.33 6.40 7.01 95 1009.9
20260502002002 15 30 11.3 22.5 0.36 6.40 7.01 95 1010.0
20260502001902 15 0 9.7 17.7 0.36 6.40 7.01 95 1010.1
20260502001801 15 0 11.3 17.7 0.36 6.40 7.01 95 1010.2
20260502001658 15 11 9.7 17.7 0.38 6.40 7.01 95 1010.2
20260502001557 15 8 8.0 14.5 0.38 6.40 7.01 95 1010.2
20260502001456 15 0 9.7 14.5 0.38 6.40 6.99 95 1010.2
20260502001354 15 0 9.7 14.5 0.38 6.40 6.99 95 1010.3
20260502001253 15 266 8.0 14.5 0.38 6.40 6.99 95 1010.2
20260502001151 15 11 6.4 16.1 0.38 6.40 6.99 95 1010.1
20260502001050 15 24 6.4 16.1 0.38 6.40 6.99 95 1010.2
20260502000949 15 21 8.0 16.1 0.38 6.40 6.96 95 1010.2
20260502000846 15 11 8.0 16.1 0.36 6.40 6.96 95 1010.3
20260502000746 15 18 6.4 16.1 0.36 6.40 6.96 95 1010.4
20260502000643 15 20 6.4 16.1 0.36 6.40 6.93 95 1010.6
20260502000543 15 7 6.4 16.1 0.33 6.40 6.93 95 1010.7
20260502000440 15 288 6.4 16.1 0.33 6.40 6.93 95 1010.9
20260502000339 15 282 8.0 19.3 0.33 6.40 6.93 95 1010.9
20260502000240 15 302 9.7 19.3 0.33 6.40 6.93 95 1010.9
20260502000137 15 307 8.0 19.3 0.33 6.40 6.93 95 1010.9
20260502000037 15 289 8.0 19.3 0.30 6.40 6.91 95 1010.9
20260501235937 15 0 6.4 25.7 0.30 6.10 6.91 95 1010.7
20260501235834 15 290 6.4 25.7 0.30 6.10 6.91 95 1010.6
20260501235732 15 309 9.7 25.7 0.30 6.10 6.91 95 1010.6
20260501235631 15 3 8.0 25.7 0.30 6.10 6.91 95 1010.6
20260501235532 15 3 8.0 25.7 0.30 6.10 6.91 95 1010.5
20260501235433 15 307 9.7 25.7 0.30 6.10 6.91 95 1010.2
20260501235332 15 299 9.7 25.7 0.30 6.10 6.91 95 1010.0
20260501235232 15 289 11.3 25.7 0.30 6.10 6.91 95 1009.7
20260501235132 15 41 14.5 25.7 0.30 6.10 6.91 95 1009.4
20260501235031 15 20 17.7 25.7 0.30 6.10 6.91 95 1009.0
20260501234932 15 0 17.7 27.4 0.30 6.10 6.91 95 1008.8
20260501234831 15 6 19.3 27.4 0.30 6.10 6.91 95 1008.6
20260501234731 15 0 17.7 27.4 0.30 6.10 6.91 95 1008.6
20260501234633 15 28 19.3 27.4 0.30 6.10 6.91 95 1008.7
20260501234533 15 11 17.7 27.4 0.30 6.10 6.91 95 1008.8
20260501234431 15 28 14.5 27.4 0.30 6.10 6.91 95 1008.9
20260501234331 15 24 16.1 27.4 0.30 6.10 6.91 95 1008.9
20260501234231 15 48 16.1 27.4 0.30 6.10 6.91 95 1009.0
20260501234133 15 61 17.7 27.4 0.30 6.10 6.91 95 1009.0
20260501234031 15 51 16.1 27.4 0.30 6.10 6.91 95 1008.8
20260501233933 15 71 14.5 22.5 0.30 6.10 6.91 95 1008.9
20260501233832 15 51 14.5 24.1 0.28 6.10 6.88 95 1009.1
20260501233731 15 68 16.1 24.1 0.28 6.10 6.88 95 1009.3
20260501233632 15 52 14.5 24.1 0.28 6.10 6.88 95 1009.5
20260501233531 15 32 12.9 24.1 0.28 6.10 6.88 95 1009.6
20260501233431 15 27 11.3 24.1 0.28 6.10 6.88 95 1009.6
20260501233331 15 21 11.3 24.1 0.28 6.10 6.86 95 1009.5
20260501233232 15 41 9.7 24.1 0.25 6.10 6.86 95 1009.4
20260501233132 15 47 12.9 24.1 0.25 6.10 6.86 95 1009.4
20260501233031 15 59 17.7 24.1 0.25 6.10 6.86 95 1009.3
20260501232933 15 37 17.7 24.1 0.23 6.10 6.83 95 1009.2
20260501232832 15 56 16.1 22.5 0.23 6.10 6.73 95 1009.4
20260501232732 15 23 16.1 22.5 0.13 6.10 6.73 95 1009.5
20260501232632 15 23 16.1 22.5 0.13 6.10 6.73 95 1009.5
20260501232533 15 23 16.1 22.5 0.13 6.10 6.73 95 1009.5
20260501232432 15 23 16.1 22.5 0.13 6.10 6.73 95 1009.6
20260501232332 15 23 14.5 22.5 0.10 6.10 6.71 95 1009.6
20260501232232 15 17 14.5 22.5 0.10 6.10 6.71 95 1009.8
20260501232131 15 28 11.3 20.9 0.08 6.10 6.68 95 1009.9
20260501232031 15 18 11.3 19.3 0.08 6.10 6.65 95 1010.1
20260501231932 15 8 12.9 19.3 0.05 6.10 6.65 95 1010.2
20260501231831 15 17 12.9 19.3 0.05 6.10 6.65 95 1010.4
20260501231732 15 32 9.7 20.9 0.05 6.10 6.63 95 1010.5
20260501231632 15 6 8.0 24.1 0.05 6.10 6.63 95 1010.5
20260501231532 15 42 8.0 24.1 0.05 6.10 6.63 95 1010.6
20260501231431 15 35 8.0 25.7 0.03 6.10 6.60 95 1010.6
20260501231327 15 21 8.0 25.7 0.03 6.10 6.60 95 1010.6
20260501231222 15 11 6.4 25.7 0.03 6.10 6.60 95 1010.5
20260501231122 15 10 6.4 25.7 0.03 6.10 6.60 95 1010.4
20260501231020 15 28 9.7 25.7 0.03 6.10 6.60 95 1010.2
20260501230917 15 37 14.5 25.7 0.03 6.10 6.60 95 1010.0
20260501230815 15 49 14.5 25.7 0.03 6.10 6.60 95 1010.0
20260501230715 15 37 14.5 25.7 0.03 6.10 6.60 95 1009.8
20260501230613 15 28 14.5 25.7 0.03 6.10 6.60 95 1009.8
20260501230511 15 18 12.9 25.7 0.03 6.10 6.60 95 1009.8
20260501230410 15 38 12.9 20.9 0.03 6.10 6.60 95 1009.8
20260501230310 15 54 12.9 20.9 0.03 6.10 6.60 95 1009.8
20260501230207 15 34 9.7 20.9 0.03 6.10 6.60 95 1009.7
20260501230108 15 0 9.7 22.5 0.03 6.10 6.60 95 1009.6
20260501230006 15 42 6.4 24.1 0.03 6.07 6.60 95 1009.4
20260501225906 15 38 6.4 24.1 0.03 6.07 6.60 95 1009.4
20260501225808 15 58 9.7 24.1 0.03 6.07 6.60 95 1009.1
20260501225706 15 39 12.9 35.4 0.03 6.07 6.60 95 1008.9
20260501225607 15 71 11.3 35.4 0.03 6.07 6.60 96 1008.8
20260501225505 15 102 8.0 35.4 0.03 6.07 6.60 96 1008.6
20260501225407 15 47 8.0 35.4 0.03 6.07 6.60 96 1008.4
20260501225307 15 47 12.9 35.4 0.03 6.07 6.60 96 1008.3
20260501225205 15 99 14.5 35.4 0.05 6.07 6.60 96 1008.3
20260501225106 15 51 16.1 35.4 0.05 6.07 6.60 96 1008.3
20260501225005 15 72 16.1 35.4 0.05 6.07 6.60 96 1008.3
20260501224906 15 49 20.9 35.4 0.05 6.07 6.60 96 1008.3
20260501224807 15 73 20.9 35.4 0.05 6.07 6.60 96 1008.4
20260501224706 15 42 16.1 35.4 0.08 6.07 6.60 96 1008.5
20260501224605 15 68 17.7 35.4 0.08 6.07 6.60 96 1008.6
20260501224505 15 39 17.7 35.4 0.08 6.07 6.60 96 1008.7
20260501224407 15 42 17.7 33.8 0.10 6.07 6.60 96 1008.8
20260501224305 15 23 19.3 29.0 0.10 6.07 6.60 96 1008.8
20260501224207 15 37 17.7 29.0 0.10 6.07 6.60 96 1008.8
20260501224105 15 20 16.1 29.0 0.10 6.07 6.60 96 1008.9
20260501224006 15 52 17.7 29.0 0.13 6.07 6.60 96 1008.9
20260501223906 15 17 16.1 29.0 0.13 6.07 6.60 96 1008.9
20260501223805 15 25 14.5 29.0 0.15 6.07 6.60 96 1008.9
20260501223705 15 30 14.5 29.0 0.15 6.07 6.60 96 1008.9
20260501223605 15 39 14.5 29.0 0.15 6.07 6.60 96 1008.9
20260501223505 15 39 16.1 29.0 0.18 6.07 6.60 96 1008.8
20260501223406 15 35 16.1 29.0 0.18 6.07 6.60 96 1008.8
20260501223305 15 32 16.1 27.4 0.20 6.07 6.60 96 1008.8
20260501223205 15 48 16.1 29.0 0.20 6.07 6.60 96 1008.6
20260501223104 15 32 14.5 29.0 0.20 6.07 6.60 96 1008.6
20260501223006 15 38 19.3 29.0 0.20 6.07 6.60 96 1008.7
20260501222907 15 32 19.3 29.0 0.23 6.07 6.60 96 1008.8
20260501222805 15 14 19.3 29.0 0.23 6.07 6.60 96 1008.8
20260501222704 16 38 19.3 29.0 0.23 6.07 6.60 96 1008.9
20260501222604 16 61 17.7 29.0 0.23 6.07 6.60 96 1009.0
20260501222505 16 49 19.3 29.0 0.23 6.07 6.60 96 1008.9
20260501222405 16 45 19.3 29.0 0.23 6.07 6.60 96 1008.9
20260501222306 16 28 19.3 29.0 0.23 6.07 6.60 96 1008.8
20260501222205 16 24 14.5 27.4 0.23 6.07 6.60 96 1008.8
20260501222104 16 45 11.3 27.4 0.23 6.07 6.60 96 1009.0
20260501222005 16 27 14.5 27.4 0.23 6.07 6.60 96 1009.0
20260501221905 16 24 16.1 29.0 0.23 6.07 6.60 96 1009.0
20260501221805 16 44 14.5 29.0 0.25 6.07 6.58 96 1009.1
20260501221705 16 27 11.3 29.0 0.23 6.07 6.58 96 1009.1
20260501221604 16 0 12.9 29.0 0.23 6.07 6.58 96 1009.3
20260501221505 16 16 14.5 29.0 0.23 6.07 6.58 96 1009.4
20260501221404 16 340 14.5 29.0 0.23 6.07 6.58 96 1009.4
20260501221304 16 21 14.5 29.0 0.23 6.07 6.58 96 1009.4
20260501221204 16 21 14.5 29.0 0.25 6.07 6.58 96 1009.4
20260501221105 16 18 14.5 29.0 0.25 6.07 6.58 96 1009.5
20260501221005 16 347 12.9 29.0 0.25 6.07 6.58 96 1009.4
20260501220904 16 21 12.9 27.4 0.25 6.07 6.58 96 1009.4
20260501220804 16 357 11.3 27.4 0.25 6.07 6.58 96 1009.4
20260501220704 16 350 12.9 27.4 0.28 6.07 6.58 96 1009.4
20260501220605 16 357 14.5 27.4 0.28 6.07 6.58 96 1009.3
20260501220505 16 6 9.7 24.1 0.28 6.07 6.58 96 1009.2
20260501220405 16 4 11.3 24.1 0.28 6.07 6.58 96 1009.2
20260501220304 16 7 11.3 24.1 0.28 6.07 6.58 96 1009.1
20260501220204 16 0 12.9 24.1 0.28 6.07 6.58 96 1009.0
20260501220104 16 20 12.9 24.1 0.28 6.07 6.58 96 1009.2
20260501220004 16 31 11.3 24.1 0.30 5.77 6.58 96 1009.4
20260501215905 16 32 11.3 24.1 0.30 5.77 6.58 96 1009.5
20260501215805 16 351 11.3 24.1 0.30 5.77 6.58 96 1009.4
20260501215704 16 357 14.5 24.1 0.33 5.77 6.58 97 1009.5
20260501215604 16 13 9.7 24.1 0.33 5.77 6.58 97 1009.4
20260501215505 16 0 8.0 22.5 0.33 5.77 6.58 96 1009.4
20260501215403 16 0 9.7 22.5 0.33 5.77 6.58 96 1009.4
20260501215305 16 351 12.9 22.5 0.36 5.77 6.55 96 1009.5
20260501215204 16 0 9.7 22.5 0.33 5.77 6.55 97 1009.5
20260501215105 16 7 8.0 14.5 0.36 5.77 6.55 97 1009.6
20260501215004 16 8 9.7 14.5 0.36 5.77 6.55 96 1009.6
20260501214905 16 39 9.7 16.1 0.38 5.77 6.55 96 1009.6
20260501214805 16 44 9.7 16.1 0.38 5.77 6.53 96 1009.6
20260501214703 16 32 8.0 16.1 0.38 5.77 6.53 96 1009.6
20260501214603 16 340 6.4 16.1 0.38 5.77 6.53 96 1009.6
20260501214507 16 17 8.0 16.1 0.38 5.77 6.50 96 1009.6
20260501214403 16 39 6.4 17.7 0.36 5.77 6.50 96 1009.6
20260501214304 16 0 6.4 17.7 0.38 5.77 6.50 96 1009.6
20260501214205 16 30 6.4 17.7 0.38 5.77 6.50 96 1009.6
20260501214105 16 41 8.0 17.7 0.41 5.77 6.48 96 1009.6
20260501214004 16 47 8.0 17.7 0.38 5.77 6.48 96 1009.6
20260501213904 16 18 6.4 17.7 0.41 5.77 6.45 96 1009.5
20260501213805 16 31 6.4 17.7 0.41 5.77 6.45 96 1009.4
20260501213704 16 34 8.0 17.7 0.41 5.77 6.45 96 1009.4
20260501213603 16 23 11.3 17.7 0.41 5.77 6.43 96 1009.4
20260501213503 16 17 11.3 17.7 0.41 5.77 6.43 96 1009.4
20260501213403 16 38 9.7 16.1 0.41 5.77 6.40 96 1009.5
20260501213303 16 34 6.4 11.3 0.38 5.77 6.40 96 1009.6
20260501213203 16 34 6.4 14.5 0.38 5.77 6.40 96 1009.6
20260501213104 16 17 6.4 17.7 0.41 5.77 6.40 96 1009.6
20260501213004 16 0 6.4 17.7 0.43 5.77 6.38 96 1009.6
20260501212904 16 16 6.4 17.7 0.41 5.77 6.38 96 1009.6
20260501212804 16 357 6.4 24.1 0.41 5.77 6.38 96 1009.6
20260501212703 16 21 6.4 24.1 0.41 5.77 6.38 96 1009.6
20260501212604 16 16 4.8 24.1 0.41 5.77 6.38 96 1009.5
20260501212504 16 14 4.8 24.1 0.41 5.77 6.38 96 1009.4
20260501212404 16 24 8.0 24.1 0.41 5.77 6.38 96 1009.3
20260501212306 16 8 11.3 24.1 0.41 5.77 6.38 96 1009.1
20260501212203 16 27 8.0 24.1 0.43 5.77 6.38 96 1009.0
20260501212104 16 47 8.0 24.1 0.43 5.77 6.38 96 1008.9
20260501212003 16 37 14.5 24.1 0.43 5.77 6.38 96 1008.7
20260501211903 16 48 14.5 24.1 0.43 5.77 6.35 96 1008.5
20260501211802 16 35 12.9 20.9 0.43 5.77 6.35 96 1008.4
20260501211703 16 44 12.9 20.9 0.43 5.77 6.35 96 1008.2
20260501211603 16 31 12.9 20.9 0.43 5.77 6.35 96 1008.2
20260501211503 16 34 14.5 22.5 0.43 5.77 6.35 96 1008.1
20260501211404 16 49 14.5 22.5 0.46 5.77 6.35 96 1008.1
20260501211302 16 30 12.9 22.5 0.46 5.77 6.32 96 1008.2
20260501211202 16 23 9.7 22.5 0.43 5.77 6.32 96 1008.2
20260501211103 16 37 9.7 25.7 0.43 5.77 6.32 96 1008.3
20260501211003 16 16 9.7 25.7 0.43 5.77 6.32 96 1008.3
20260501210903 16 28 8.0 25.7 0.43 5.77 6.30 96 1008.2
20260501210803 16 0 9.7 25.7 0.43 5.77 6.30 96 1008.1
20260501210703 16 8 12.9 30.6 0.41 5.77 6.30 96 1007.9
20260501210557 16 0 12.9 30.6 0.41 5.77 6.30 96 1007.8
20260501210457 16 17 12.9 30.6 0.41 5.77 6.30 96 1007.8
20260501210354 16 28 14.5 30.6 0.41 5.77 6.30 96 1007.8
20260501210254 16 14 14.5 30.6 0.41 5.77 6.30 96 1007.7
20260501210151 16 18 14.5 30.6 0.41 5.77 6.30 96 1007.7
20260501210051 16 357 12.9 30.6 0.41 5.77 6.27 96 1007.7
20260501205948 16 1 16.1 30.6 0.38 5.38 6.27 96 1007.6
20260501205847 16 27 22.5 30.6 0.38 5.38 6.27 96 1007.6
20260501205746 16 42 20.9 30.6 0.38 5.38 6.25 96 1007.5
20260501205644 16 38 19.3 29.0 0.36 5.38 6.25 96 1007.7
20260501205541 16 35 14.5 24.1 0.36 5.38 6.25 96 1007.8
20260501205441 16 55 12.9 22.5 0.36 5.38 6.22 96 1008.0
20260501205339 16 11 11.3 22.5 0.36 5.38 6.22 96 1008.2
20260501205239 16 32 11.3 22.5 0.36 5.38 6.22 96 1008.4
20260501205135 16 32 12.9 22.5 0.36 5.38 6.20 96 1008.5
20260501205034 16 37 9.7 22.5 0.33 5.38 6.20 96 1008.7
20260501204932 16 23 9.7 22.5 0.33 5.38 6.17 96 1008.8
20260501204831 16 30 11.3 22.5 0.30 5.38 6.17 96 1008.8
20260501204731 16 39 12.9 20.9 0.33 5.38 6.15 96 1008.6
20260501204630 16 17 12.9 20.9 0.30 5.38 6.15 96 1008.6
20260501204529 16 45 12.9 20.9 0.30 5.38 6.15 96 1008.6
20260501204428 16 42 12.9 20.9 0.33 5.38 6.12 96 1008.7
20260501204314 16 52 11.3 20.9 0.30 5.38 6.12 96 1008.8
20260501204212 16 25 8.0 19.3 0.33 5.38 6.12 97 1009.0
20260501204111 16 357 8.0 22.5 0.30 5.38 6.10 96 1009.0
20260501204011 16 7 9.7 22.5 0.33 5.38 6.10 96 1008.9
20260501203908 16 4 9.7 22.5 0.30 5.38 6.05 96 1008.8
20260501203802 16 13 12.9 22.5 0.28 5.38 6.05 96 1008.7
20260501203704 16 345 11.3 22.5 0.28 5.38 6.05 96 1008.7
20260501203605 16 1 9.7 22.5 0.28 5.38 6.02 96 1008.8
20260501203503 16 10 8.0 22.5 0.25 5.38 6.02 96 1008.9
20260501203402 16 35 9.7 22.5 0.25 5.38 6.02 96 1008.9
20260501203303 16 14 12.9 22.5 0.25 5.38 6.02 96 1008.9
20260501203205 16 35 12.9 22.5 0.25 5.38 5.99 96 1008.8
20260501203103 16 6 12.9 22.5 0.23 5.38 5.97 96 1008.7
20260501203002 16 42 8.0 19.3 0.23 5.38 5.97 96 1008.4
20260501202903 16 1 9.7 19.3 0.23 5.38 5.97 96 1008.2
20260501202803 16 1 9.7 19.3 0.23 5.38 5.97 96 1008.1
20260501202702 16 1 9.7 19.3 0.23 5.38 5.97 96 1008.2
20260501202532 16 1 9.7 19.3 0.23 5.38 5.97 96 1008.5
20260501202423 16 1 9.7 19.3 0.23 5.38 5.97 96 1008.6
20260501202320 16 20 9.7 19.3 0.23 5.38 5.97 96 1008.7
20260501202218 16 348 9.7 19.3 0.20 5.38 5.94 96 1008.8
20260501202118 16 341 8.0 19.3 0.20 5.38 5.94 96 1008.8
20260501202015 16 347 8.0 19.3 0.20 5.38 5.94 96 1008.7
20260501201914 16 357 9.7 19.3 0.20 5.38 5.92 96 1008.5
20260501201811 16 13 11.3 19.3 0.20 5.38 5.92 96 1008.4
20260501201712 16 24 9.7 19.3 0.18 5.38 5.92 96 1008.3
20260501201609 16 11 8.0 19.3 0.18 5.38 5.92 96 1008.3
20260501201509 16 24 9.7 19.3 0.18 5.38 5.92 96 1008.3
20260501201407 16 340 8.0 16.1 0.15 5.38 5.89 96 1008.2
20260501201304 16 0 6.4 16.1 0.15 5.38 5.89 96 1008.2
20260501201204 16 7 6.4 16.1 0.15 5.38 5.89 96 1008.1
20260501201104 16 4 9.7 16.1 0.15 5.38 5.89 96 1008.2
20260501201003 16 20 9.7 16.1 0.15 5.38 5.89 96 1008.2
20260501200901 16 37 9.7 16.1 0.15 5.38 5.89 96 1008.1
20260501200804 16 34 9.7 16.1 0.15 5.38 5.89 96 1008.1
20260501200705 16 30 9.7 16.1 0.15 5.38 5.89 96 1008.1
20260501200601 16 37 9.7 16.1 0.18 5.38 5.89 96 1008.1
20260501200502 16 44 11.3 19.3 0.18 5.38 5.89 96 1008.0
20260501200403 16 20 9.7 20.9 0.18 5.38 5.89 96 1008.0
20260501200300 16 7 8.0 20.9 0.18 5.38 5.89 96 1007.8
20260501200158 16 42 6.4 20.9 0.20 5.38 5.89 96 1007.7
20260501200058 16 1 8.0 20.9 0.23 5.38 5.89 96 1007.6
20260501195956 16 35 9.7 20.9 0.23 5.16 5.89 96 1007.7
20260501195852 16 41 8.0 20.9 0.25 5.16 5.89 96 1007.8
20260501195749 16 10 9.7 20.9 0.25 5.16 5.89 96 1007.8
20260501195647 16 27 11.3 20.9 0.25 5.16 5.89 96 1007.7
20260501195547 16 27 14.5 20.9 0.28 5.16 5.89 96 1007.6
20260501195443 16 16 14.5 20.9 0.28 5.16 5.87 96 1007.4
20260501195342 16 32 12.9 19.3 0.25 5.16 5.87 96 1007.4
20260501195240 16 52 11.3 19.3 0.28 5.16 5.87 96 1007.4
20260501195140 16 28 9.7 19.3 0.30 5.16 5.87 96 1007.4
20260501195038 16 7 11.3 19.3 0.30 5.16 5.87 96 1007.4
20260501194936 16 17 9.7 17.7 0.33 5.16 5.87 96 1007.4